Weather History for Yakima, WA

Change the Weather History Date:

Monday, May 27, 2013

  Actual Average Record
Temperature  
Mean Temperature 52 °F 60 °F  
Max Temperature 61 °F 75 °F 91 °F (1983)
Min Temperature 43 °F 45 °F 32 °F (1973)
Degree Days  
Heating Degree Days 13 6  
Month to date heating degree days 160 239  
Since 1 July heating degree days 5116 5921  
Cooling Degree Days 0 1  
Month to date cooling degree days 51 16  
Year to date cooling degree days 52 17  
Growing Degree Days 2 (Base 50)    
Moisture  
Dew Point 47 °F    
Average Humidity 78    
Maximum Humidity 89    
Minimum Humidity 66    
Precipitation  
Precipitation 0.03 in 0.02 in 0.47 in (2010)
Month to date precipitation 2.17 0.49  
Year to date precipitation 3.47 3.58  
Snow  
Snow 0.00 in 0.00 in 0.00 in (2002)
Month to date snowfall 0.0 0.0  
Year to date snowfall 1.1 8.6  
Since 1 July snowfall 15.3 21.6  
Snow Depth 0.00 in    
Sea Level Pressure  
Sea Level Pressure 29.84 in    
Wind  
Wind Speed 5 mph (SSE)    
Max Wind Speed 10 mph    
Max Gust Speed 15 mph    
Visibility 10 miles    
Events Rain    
T = Trace of Precipitation, MM = Missing Value Source: NWS Daily Summary

Daily Weather History Graph

Daily Weather History Graph

Search for Another Location

Airport:

Trip Planner

Search our weather history database for the weather conditions in past years. The results will help you decide how hot, cold, wet, or windy it might be!

Date:

Astronomy

May. 27, 2013 Rise Set
Actual Time 5:15 AM PDT 8:43 PM PDT
Civil Twilight 4:38 AM PDT 9:20 PM PDT
Nautical Twilight 3:49 AM PDT 10:10 PM PDT
Astronomical Twilight 2:45 AM PDT 11:15 PM PDT
Moon 11:21 PM PDT (5/27) 8:02 AM PDT (5/27)
Length of Visible Light 16h 42m
Length of Day
15h 27m
Waning Gibbous, 90% of the Moon is Illuminated
May 27
Waning Gibbous
May 31
Last Quarter
Jun 8
New
Jun 16
First Quarter
Jun 23
Full

Hourly Weather History & Observations

Time (PDT) Temp. Windchill Dew Point Humidity Pressure Visibility Wind Dir Wind Speed Gust Speed Precip Events Conditions
12:53 AM 51.1 °F - 43.0 °F 74% 29.93 in 10.0 mi SW 4.6 mph - N/A   Clear
1:53 AM 48.0 °F - 43.0 °F 83% 29.93 in 10.0 mi West 3.5 mph - N/A   Scattered Clouds
2:53 AM 46.0 °F 43.9 °F 42.1 °F 86% 29.92 in 10.0 mi Variable 4.6 mph - N/A   Clear
3:53 AM 45.0 °F 42.6 °F 41.0 °F 86% 29.91 in 10.0 mi West 4.6 mph - N/A   Clear
4:53 AM 44.1 °F 40.8 °F 39.9 °F 85% 29.91 in 10.0 mi West 5.8 mph - N/A   Clear
5:53 AM 45.0 °F 41.8 °F 41.0 °F 86% 29.90 in 10.0 mi West 5.8 mph - N/A   Clear
6:53 AM 48.9 °F - 43.0 °F 80% 29.89 in 10.0 mi Calm Calm - N/A   Clear
7:53 AM 52.0 °F - 45.0 °F 77% 29.89 in 10.0 mi Calm Calm - N/A   Clear
8:53 AM 55.0 °F - 44.1 °F 67% 29.87 in 10.0 mi Calm Calm - N/A   Mostly Cloudy
9:53 AM 55.9 °F - 45.0 °F 67% 29.87 in 10.0 mi Calm Calm - 0.00 in Rain Light Rain
10:53 AM 57.9 °F - 46.9 °F 67% 29.85 in 10.0 mi East 3.5 mph - 0.00 in Rain Light Rain
11:53 AM 57.0 °F - 48.0 °F 72% 29.84 in 10.0 mi SE 6.9 mph - 0.01 in Rain Light Rain
12:53 PM 57.9 °F - 48.9 °F 72% 29.83 in 10.0 mi SE 10.4 mph - 0.00 in Rain Light Rain
1:53 PM 57.9 °F - 50.0 °F 75% 29.83 in 10.0 mi SE 9.2 mph - 0.00 in Rain Light Rain
2:53 PM 57.9 °F - 51.1 °F 78% 29.81 in 10.0 mi ESE 5.8 mph - 0.01 in Rain Light Rain
3:53 PM 57.9 °F - 52.0 °F 81% 29.81 in 10.0 mi ESE 8.1 mph - 0.01 in Rain Light Rain
4:53 PM 57.9 °F - 51.1 °F 78% 29.80 in 10.0 mi ESE 8.1 mph - 0.00 in   Mostly Cloudy
5:53 PM 60.1 °F - 51.1 °F 72% 29.79 in 10.0 mi SE 6.9 mph - N/A   Mostly Cloudy
6:53 PM 60.1 °F - 50.0 °F 69% 29.77 in 10.0 mi SE 4.6 mph - N/A   Overcast
7:53 PM 59.0 °F - 48.9 °F 69% 29.77 in 10.0 mi SE 8.1 mph - N/A   Overcast
8:53 PM 57.0 °F - 51.1 °F 81% 29.76 in 10.0 mi ESE 5.8 mph - 0.00 in   Mostly Cloudy
9:53 PM 57.0 °F - 50.0 °F 77% 29.78 in 10.0 mi Calm Calm - 0.00 in   Mostly Cloudy
10:53 PM 53.1 °F - 48.9 °F 86% 29.78 in 10.0 mi West 3.5 mph - N/A   Scattered Clouds
11:53 PM 53.1 °F - 48.9 °F 86% 29.78 in 10.0 mi NW 3.5 mph - N/A   Mostly Cloudy